| time (UTC) | temp C | wind direction | speed KPH | gust KPH | rain 1hr cm | rain 24hr cm | rain mn cm | humidity % | barometer mb |
| 20260905191122 | 35 | 249 | 0.0 | 1.6 | 0.00 | 0.05 | 0.05 | 58 | 1013.5 |
| 20260905190620 | 34 | 266 | 0.0 | 0.0 | 0.00 | 0.05 | 0.05 | 60 | 1013.8 |
| 20260905190115 | 35 | 252 | 0.0 | 0.0 | 0.00 | 0.05 | 0.05 | 56 | 1013.8 |
| 20260905185614 | 35 | 244 | 1.6 | 1.6 | 0.00 | 0.05 | 0.05 | 56 | 1014.1 |
| 20260905185114 | 35 | 258 | 0.0 | 0.0 | 0.00 | 0.05 | 0.05 | 57 | 1014.2 |
| 20260905184608 | 35 | 249 | 0.0 | 0.0 | 0.00 | 0.05 | 0.05 | 57 | 1014.2 |
| 20260905184107 | 34 | 235 | 0.0 | 1.6 | 0.00 | 0.05 | 0.05 | 57 | 1014.0 |
| 20260905183606 | 34 | 253 | 0.0 | 0.0 | 0.00 | 0.05 | 0.05 | 57 | 1014.2 |
| 20260905183102 | 35 | 257 | 0.0 | 1.6 | 0.00 | 0.05 | 0.05 | 55 | 1014.4 |
| 20260905182601 | 35 | 269 | 0.0 | 0.0 | 0.00 | 0.05 | 0.05 | 56 | 1014.5 |
| 20260905182056 | 34 | 252 | 0.0 | 0.0 | 0.00 | 0.05 | 0.05 | 57 | 1014.4 |
| 20260905181556 | 34 | 244 | 1.6 | 1.6 | 0.00 | 0.05 | 0.05 | 56 | 1014.5 |
| 20260905181055 | 34 | 213 | 3.2 | 3.2 | 0.00 | 0.05 | 0.05 | 57 | 1014.5 |
| 20260905180550 | 34 | 277 | 0.0 | 0.0 | 0.00 | 0.05 | 0.05 | 57 | 1014.4 |
| 20260905180046 | 33 | 244 | 1.6 | 3.2 | 0.00 | 0.05 | 0.05 | 57 | 1014.6 |
| 20260905175545 | 33 | 287 | 3.2 | 3.2 | 0.00 | 0.05 | 0.05 | 56 | 1014.8 |
| 20260905175041 | 33 | 297 | 1.6 | 1.6 | 0.00 | 0.05 | 0.05 | 57 | 1014.5 |
| 20260905174536 | 33 | 250 | 0.0 | 0.0 | 0.00 | 0.05 | 0.05 | 59 | 1014.8 |
| 20260905174031 | 33 | 209 | 3.2 | 3.2 | 0.00 | 0.05 | 0.05 | 59 | 1014.8 |
| 20260905173529 | 33 | 236 | 3.2 | 4.8 | 0.00 | 0.05 | 0.05 | 57 | 1015.1 |
| 20260905173029 | 33 | 253 | 1.6 | 1.6 | 0.00 | 0.05 | 0.05 | 57 | 1015.1 |
| 20260905172527 | 33 | 202 | 3.2 | 6.4 | 0.00 | 0.05 | 0.05 | 57 | 1015.0 |
| 20260905172023 | 33 | 257 | 1.6 | 1.6 | 0.00 | 0.05 | 0.05 | 56 | 1015.0 |
| 20260905171519 | 33 | 257 | 0.0 | 1.6 | 0.00 | 0.05 | 0.05 | 57 | 1015.0 |
| 20260905171015 | 33 | 245 | 1.6 | 1.6 | 0.00 | 0.05 | 0.05 | 58 | 1015.2 |
| 20260905170511 | 33 | 249 | 0.0 | 1.6 | 0.00 | 0.05 | 0.05 | 58 | 1015.0 |
| 20260905170006 | 32 | 246 | 4.8 | 6.4 | 0.00 | 0.05 | 0.05 | 60 | 1015.2 |
| 20260905165501 | 32 | 246 | 1.6 | 1.6 | 0.00 | 0.05 | 0.05 | 60 | 1015.2 |
| 20260905164956 | 32 | 248 | 1.6 | 1.6 | 0.00 | 0.05 | 0.05 | 62 | 1015.3 |
| 20260905164455 | 32 | 212 | 4.8 | 6.4 | 0.00 | 0.05 | 0.05 | 60 | 1015.3 |
| 20260905163950 | 32 | 238 | 3.2 | 3.2 | 0.00 | 0.05 | 0.05 | 60 | 1015.5 |
| 20260905163447 | 32 | 202 | 4.8 | 4.8 | 0.00 | 0.05 | 0.05 | 63 | 1015.3 |
| 20260905162943 | 31 | 246 | 3.2 | 4.8 | 0.00 | 0.05 | 0.05 | 62 | 1015.3 |
| 20260905162438 | 31 | 241 | 1.6 | 1.6 | 0.00 | 0.05 | 0.05 | 62 | 1015.6 |
| 20260905161932 | 31 | 246 | 3.2 | 6.4 | 0.00 | 0.05 | 0.05 | 61 | 1015.6 |
| 20260905161432 | 31 | 240 | 3.2 | 3.2 | 0.00 | 0.05 | 0.05 | 62 | 1015.7 |
| 20260905160930 | 31 | 243 | 3.2 | 4.8 | 0.00 | 0.05 | 0.05 | 62 | 1015.5 |
| 20260905160424 | 31 | 228 | 3.2 | 4.8 | 0.00 | 0.05 | 0.05 | 63 | 1015.7 |
| 20260905155918 | 31 | 226 | 4.8 | 4.8 | 0.00 | 0.05 | 0.05 | 65 | 1015.8 |
| 20260905155418 | 30 | 242 | 3.2 | 4.8 | 0.00 | 0.05 | 0.05 | 65 | 1015.5 |
| 20260905154917 | 30 | 244 | 3.2 | 4.8 | 0.00 | 0.05 | 0.05 | 65 | 1015.7 |
| 20260905154413 | 30 | 233 | 3.2 | 3.2 | 0.00 | 0.05 | 0.05 | 66 | 1015.8 |
| 20260905153908 | 30 | 235 | 4.8 | 4.8 | 0.00 | 0.05 | 0.05 | 66 | 1015.8 |
| 20260905153405 | 30 | 239 | 3.2 | 3.2 | 0.00 | 0.05 | 0.05 | 65 | 1015.9 |
| 20260905152904 | 29 | 225 | 4.8 | 6.4 | 0.00 | 0.05 | 0.05 | 67 | 1016.0 |
| 20260905152403 | 29 | 149 | 3.2 | 4.8 | 0.00 | 0.05 | 0.05 | 69 | 1015.8 |
| 20260905151858 | 29 | 230 | 4.8 | 4.8 | 0.00 | 0.05 | 0.05 | 69 | 1015.8 |
| 20260905151354 | 28 | 204 | 3.2 | 4.8 | 0.00 | 0.05 | 0.05 | 70 | 1015.9 |
| 20260905150854 | 28 | 222 | 3.2 | 4.8 | 0.00 | 0.05 | 0.05 | 71 | 1016.1 |
| 20260905150349 | 28 | 214 | 4.8 | 4.8 | 0.00 | 0.05 | 0.05 | 70 | 1015.9 |
| 20260905145846 | 28 | 223 | 4.8 | 6.4 | 0.00 | 0.05 | 0.05 | 72 | 1016.3 |
| 20260905145341 | 28 | 237 | 3.2 | 4.8 | 0.00 | 0.05 | 0.05 | 72 | 1016.1 |
| 20260905144839 | 27 | 214 | 3.2 | 4.8 | 0.00 | 0.05 | 0.05 | 73 | 1016.2 |
| 20260905144335 | 27 | 3 | 3.2 | 4.8 | 0.00 | 0.05 | 0.05 | 74 | 1016.1 |
| 20260905143833 | 27 | 231 | 4.8 | 4.8 | 0.00 | 0.05 | 0.05 | 74 | 1016.1 |
| 20260905143328 | 27 | 204 | 3.2 | 4.8 | 0.00 | 0.05 | 0.05 | 74 | 1016.3 |
| 20260905142827 | 27 | 209 | 3.2 | 3.2 | 0.00 | 0.05 | 0.05 | 78 | 1016.3 |
| 20260905142321 | 27 | 214 | 1.6 | 3.2 | 0.00 | 0.05 | 0.05 | 79 | 1016.5 |
| 20260905141812 | 26 | 229 | 4.8 | 6.4 | 0.00 | 0.05 | 0.05 | 79 | 1016.4 |
| 20260905141307 | 26 | 207 | 3.2 | 4.8 | 0.00 | 0.05 | 0.05 | 80 | 1016.4 |
| 20260905140802 | 26 | 220 | 3.2 | 3.2 | 0.00 | 0.05 | 0.05 | 79 | 1016.6 |
| 20260905140302 | 26 | 226 | 3.2 | 3.2 | 0.00 | 0.05 | 0.05 | 78 | 1016.4 |
| 20260905135801 | 26 | 308 | 1.6 | 1.6 | 0.00 | 0.05 | 0.05 | 78 | 1016.7 |
| 20260905135252 | 26 | 228 | 1.6 | 1.6 | 0.00 | 0.05 | 0.05 | 79 | 1016.5 |
| 20260905134751 | 26 | 235 | 4.8 | 6.4 | 0.00 | 0.05 | 0.05 | 79 | 1016.3 |
| 20260905134245 | 25 | 228 | 1.6 | 1.6 | 0.00 | 0.05 | 0.05 | 83 | 1016.4 |
| 20260905133740 | 25 | 207 | 4.8 | 6.4 | 0.00 | 0.05 | 0.05 | 85 | 1016.5 |
| 20260905133235 | 25 | 242 | 1.6 | 3.2 | 0.00 | 0.05 | 0.05 | 86 | 1016.6 |
| 20260905132734 | 25 | 200 | 3.2 | 4.8 | 0.00 | 0.05 | 0.05 | 87 | 1016.6 |
| 20260905132229 | 25 | 275 | 1.6 | 1.6 | 0.00 | 0.05 | 0.05 | 90 | 1016.6 |
| 20260905131725 | 25 | 260 | 0.0 | 0.0 | 0.00 | 0.05 | 0.05 | 92 | 1016.5 |
| 20260905131220 | 25 | 80 | 1.6 | 1.6 | 0.00 | 0.05 | 0.05 | 95 | 1016.6 |
| 20260905130720 | 24 | 224 | 1.6 | 3.2 | 0.00 | 0.05 | 0.05 | 97 | 1016.4 |
| 20260905130219 | 24 | 19 | 8.0 | 11.3 | 0.00 | 0.05 | 0.05 | 98 | 1016.5 |
| 20260905125714 | 24 | 271 | 0.0 | 0.0 | 0.00 | 0.05 | 0.05 | 98 | 1015.7 |
| 20260905125204 | 24 | 270 | 0.0 | 0.0 | 0.00 | 0.05 | 0.05 | 98 | 1015.6 |
| 20260905124701 | 24 | 270 | 0.0 | 0.0 | 0.00 | 0.05 | 0.05 | 98 | 1015.6 |
| 20260905124156 | 24 | 270 | 0.0 | 0.0 | 0.00 | 0.05 | 0.05 | 98 | 1015.8 |
| 20260905123651 | 23 | 271 | 0.0 | 0.0 | 0.00 | 0.05 | 0.05 | 98 | 1015.9 |
| 20260905123148 | 23 | 271 | 0.0 | 0.0 | 0.00 | 0.05 | 0.05 | 98 | 1015.7 |
| 20260905122648 | 23 | 271 | 0.0 | 0.0 | 0.00 | 0.05 | 0.05 | 98 | 1015.5 |
| 20260905122143 | 23 | 271 | 0.0 | 0.0 | 0.00 | 0.05 | 0.05 | 98 | 1015.6 |
| 20260905121642 | 23 | 271 | 0.0 | 0.0 | 0.00 | 0.05 | 0.05 | 98 | 1015.3 |
| 20260905121138 | 23 | 270 | 0.0 | 0.0 | 0.00 | 0.05 | 0.05 | 98 | 1015.4 |
| 20260905120637 | 23 | 271 | 0.0 | 0.0 | 0.00 | 0.05 | 0.05 | 98 | 1015.2 |
| 20260905120132 | 23 | 271 | 0.0 | 0.0 | 0.00 | 0.05 | 0.05 | 98 | 1015.5 |
| 20260905115631 | 23 | 270 | 0.0 | 0.0 | 0.00 | 0.05 | 0.05 | 98 | 1015.5 |
| 20260905115127 | 23 | 271 | 0.0 | 0.0 | 0.00 | 0.05 | 0.05 | 98 | 1015.5 |
| 20260905114626 | 23 | 271 | 0.0 | 0.0 | 0.00 | 0.05 | 0.05 | 98 | 1015.5 |
| 20260905114125 | 23 | 271 | 0.0 | 0.0 | 0.00 | 0.05 | 0.05 | 98 | 1015.6 |
| 20260905113620 | 23 | 271 | 0.0 | 0.0 | 0.00 | 0.05 | 0.05 | 98 | 1015.3 |
| 20260905113116 | 23 | 271 | 0.0 | 0.0 | 0.00 | 0.05 | 0.05 | 98 | 1015.4 |
| 20260905112618 | 23 | 271 | 0.0 | 0.0 | 0.00 | 0.05 | 0.05 | 98 | 1015.5 |
| 20260905112112 | 23 | 271 | 0.0 | 0.0 | 0.00 | 0.05 | 0.05 | 98 | 1015.3 |
| 20260905111606 | 23 | 272 | 0.0 | 0.0 | 0.00 | 0.05 | 0.05 | 98 | 1015.3 |
| 20260905111105 | 23 | 272 | 0.0 | 0.0 | 0.00 | 0.05 | 0.05 | 98 | 1015.3 |
| 20260905110604 | 23 | 271 | 0.0 | 0.0 | 0.00 | 0.05 | 0.05 | 98 | 1015.2 |
| 20260905110100 | 23 | 273 | 0.0 | 0.0 | 0.13 | 0.05 | 0.05 | 97 | 1014.9 |
| 20260905105554 | 23 | 273 | 0.0 | 0.0 | 0.13 | 0.05 | 0.05 | 97 | 1014.9 |
| 20260905105053 | 23 | 273 | 0.0 | 0.0 | 0.00 | 0.03 | 0.03 | 97 | 1014.5 |
| 20260905104550 | 23 | 274 | 0.0 | 0.0 | 0.00 | 0.03 | 0.03 | 97 | 1014.8 |
| 20260905104049 | 23 | 279 | 0.0 | 0.0 | 0.18 | 0.03 | 0.03 | 97 | 1014.5 |
| 20260905103544 | 23 | 303 | 0.0 | 1.6 | 0.18 | 0.03 | 0.03 | 97 | 1014.5 |
| 20260905103041 | 22 | 262 | 0.0 | 0.0 | 0.18 | 0.03 | 0.03 | 97 | 1014.5 |
| 20260905102536 | 22 | 298 | 0.0 | 0.0 | 0.00 | 0.00 | 0.00 | 97 | 1014.9 |
| 20260905102032 | 22 | 250 | 0.0 | 0.0 | 0.00 | 0.00 | 0.00 | 97 | 1014.6 |
| 20260905101531 | 22 | 250 | 0.0 | 0.0 | 0.00 | 0.00 | 0.00 | 97 | 1014.5 |
| 20260905101029 | 22 | 250 | 0.0 | 0.0 | 0.00 | 0.00 | 0.00 | 97 | 1014.9 |
| 20260905100526 | 22 | 250 | 0.0 | 0.0 | 0.00 | 0.00 | 0.00 | 97 | 1014.9 |
| 20260905100025 | 23 | 250 | 0.0 | 0.0 | 0.00 | 0.00 | 0.00 | 96 | 1014.6 |
| 20260905095520 | 23 | 250 | 0.0 | 0.0 | 0.00 | 0.00 | 0.00 | 96 | 1014.6 |
| 20260905095015 | 23 | 250 | 0.0 | 0.0 | 0.00 | 0.00 | 0.00 | 96 | 1014.8 |
| 20260905094510 | 23 | 250 | 0.0 | 0.0 | 0.00 | 0.00 | 0.00 | 96 | 1014.9 |
| 20260905094009 | 23 | 250 | 0.0 | 0.0 | 0.00 | 0.00 | 0.00 | 96 | 1014.8 |
| 20260905093504 | 23 | 250 | 0.0 | 0.0 | 0.00 | 0.00 | 0.00 | 96 | 1014.6 |
| 20260905093000 | 23 | 250 | 0.0 | 0.0 | 0.00 | 0.00 | 0.00 | 96 | 1014.3 |
| 20260905092455 | 23 | 250 | 0.0 | 0.0 | 0.00 | 0.00 | 0.00 | 95 | 1014.3 |
| 20260905091950 | 23 | 249 | 0.0 | 0.0 | 0.00 | 0.00 | 0.00 | 95 | 1014.1 |
| 20260905091444 | 23 | 250 | 0.0 | 0.0 | 0.00 | 0.00 | 0.00 | 95 | 1014.1 |
| 20260905090944 | 23 | 249 | 0.0 | 0.0 | 0.00 | 0.00 | 0.00 | 95 | 1014.2 |
| 20260905090439 | 23 | 249 | 0.0 | 0.0 | 0.00 | 0.00 | 0.00 | 94 | 1014.2 |
| 20260905085938 | 23 | 249 | 0.0 | 0.0 | 0.00 | 0.00 | 0.00 | 94 | 1014.1 |
| 20260905085438 | 23 | 249 | 0.0 | 0.0 | 0.00 | 0.00 | 0.00 | 94 | 1014.2 |
| 20260905084934 | 23 | 249 | 0.0 | 0.0 | 0.00 | 0.00 | 0.00 | 94 | 1014.0 |
| 20260905084433 | 23 | 249 | 0.0 | 0.0 | 0.00 | 0.00 | 0.00 | 93 | 1014.0 |
| 20260905083928 | 23 | 249 | 0.0 | 0.0 | 0.00 | 0.00 | 0.00 | 93 | 1013.9 |
| 20260905083424 | 23 | 249 | 0.0 | 0.0 | 0.00 | 0.00 | 0.00 | 93 | 1014.0 |
| 20260905082919 | 24 | 249 | 0.0 | 0.0 | 0.00 | 0.00 | 0.00 | 93 | 1013.9 |
| 20260905082415 | 24 | 249 | 0.0 | 0.0 | 0.00 | 0.00 | 0.00 | 92 | 1013.9 |
| 20260905081910 | 24 | 243 | 0.0 | 0.0 | 0.00 | 0.00 | 0.00 | 92 | 1013.8 |
| 20260905081405 | 24 | 243 | 0.0 | 0.0 | 0.00 | 0.00 | 0.00 | 92 | 1013.8 |
| 20260905080904 | 24 | 243 | 0.0 | 0.0 | 0.00 | 0.00 | 0.00 | 91 | 1013.8 |
| 20260905080359 | 24 | 243 | 0.0 | 0.0 | 0.00 | 0.00 | 0.00 | 91 | 1014.1 |
| 20260905075858 | 25 | 242 | 0.0 | 0.0 | 0.00 | 0.00 | 0.00 | 91 | 1014.0 |
| 20260905075357 | 25 | 242 | 0.0 | 0.0 | 0.00 | 0.00 | 0.00 | 91 | 1013.8 |
| 20260905074856 | 24 | 242 | 0.0 | 0.0 | 0.00 | 0.00 | 0.00 | 94 | 1013.8 |
| 20260905074352 | 24 | 240 | 0.0 | 0.0 | 0.00 | 0.00 | 0.00 | 97 | 1013.9 |
| 20260905073848 | 23 | 213 | 0.0 | 1.6 | 0.00 | 0.00 | 0.00 | 98 | 1014.1 |
| 20260905073343 | 23 | 268 | 0.0 | 0.0 | 0.00 | 0.00 | 0.00 | 98 | 1014.5 |
| 20260905072837 | 23 | 223 | 0.0 | 0.0 | 0.00 | 0.00 | 0.00 | 98 | 1014.1 |
| 20260905072332 | 23 | 223 | 0.0 | 0.0 | 0.00 | 0.00 | 0.00 | 98 | 1014.1 |
| 20260905071829 | 23 | 223 | 0.0 | 0.0 | 0.00 | 0.00 | 0.00 | 97 | 1014.1 |
| 20260905071325 | 23 | 223 | 0.0 | 0.0 | 0.00 | 0.00 | 0.00 | 98 | 1014.2 |
| 20260905070819 | 23 | 223 | 0.0 | 0.0 | 0.00 | 0.00 | 0.00 | 97 | 1014.5 |
| 20260905070316 | 23 | 223 | 0.0 | 0.0 | 0.00 | 0.00 | 0.00 | 97 | 1014.3 |
| 20260905065814 | 23 | 223 | 0.0 | 0.0 | 0.00 | 0.00 | 0.00 | 97 | 1014.5 |
| 20260905065313 | 23 | 223 | 0.0 | 0.0 | 0.00 | 0.00 | 0.00 | 97 | 1014.4 |
| 20260905064809 | 23 | 223 | 0.0 | 0.0 | 0.00 | 0.00 | 0.00 | 97 | 1014.5 |
| 20260905064304 | 23 | 223 | 0.0 | 0.0 | 0.00 | 0.00 | 0.00 | 97 | 1014.4 |
| 20260905063803 | 23 | 223 | 0.0 | 0.0 | 0.00 | 0.00 | 0.00 | 97 | 1014.5 |
| 20260905063259 | 23 | 223 | 0.0 | 0.0 | 0.00 | 0.00 | 0.00 | 97 | 1014.6 |
| 20260905062755 | 23 | 223 | 0.0 | 0.0 | 0.00 | 0.00 | 0.00 | 97 | 1014.9 |
| 20260905062254 | 23 | 223 | 0.0 | 0.0 | 0.00 | 0.00 | 0.00 | 97 | 1014.9 |
| 20260905061749 | 23 | 223 | 0.0 | 0.0 | 0.00 | 0.00 | 0.00 | 97 | 1014.9 |
| 20260905061244 | 23 | 223 | 0.0 | 0.0 | 0.00 | 0.00 | 0.00 | 97 | 1015.0 |
| 20260905060738 | 23 | 223 | 0.0 | 0.0 | 0.00 | 0.00 | 0.00 | 97 | 1014.8 |
| 20260905060235 | 23 | 223 | 0.0 | 0.0 | 0.00 | 0.00 | 0.00 | 97 | 1014.9 |
| 20260905055733 | 23 | 223 | 0.0 | 0.0 | 0.00 | 0.00 | 0.00 | 97 | 1014.9 |
| 20260905055229 | 23 | 223 | 0.0 | 0.0 | 0.00 | 0.00 | 0.00 | 97 | 1014.8 |
| 20260905054724 | 23 | 223 | 0.0 | 0.0 | 0.00 | 0.00 | 0.00 | 97 | 1014.9 |
| 20260905054221 | 23 | 223 | 0.0 | 0.0 | 0.00 | 0.00 | 0.00 | 97 | 1015.2 |
| 20260905053719 | 23 | 223 | 0.0 | 0.0 | 0.00 | 0.00 | 0.00 | 97 | 1015.1 |
| 20260905053215 | 23 | 223 | 0.0 | 0.0 | 0.00 | 0.00 | 0.00 | 97 | 1015.2 |
| 20260905052715 | 23 | 223 | 0.0 | 0.0 | 0.00 | 0.00 | 0.00 | 97 | 1015.1 |
| 20260905052209 | 23 | 223 | 0.0 | 0.0 | 0.00 | 0.00 | 0.00 | 97 | 1015.2 |
| 20260905051703 | 23 | 223 | 0.0 | 0.0 | 0.00 | 0.00 | 0.00 | 97 | 1015.1 |
| 20260905051200 | 23 | 223 | 0.0 | 0.0 | 0.00 | 0.00 | 0.00 | 96 | 1015.1 |
| 20260905050656 | 23 | 223 | 0.0 | 0.0 | 0.00 | 0.00 | 0.00 | 96 | 1015.3 |
| 20260905050153 | 23 | 223 | 0.0 | 0.0 | 0.00 | 0.00 | 0.00 | 96 | 1015.0 |
| 20260905045647 | 23 | 223 | 0.0 | 0.0 | 0.00 | 0.00 | 0.00 | 96 | 1015.0 |
| 20260905045143 | 23 | 223 | 0.0 | 0.0 | 0.00 | 0.00 | 0.00 | 96 | 1015.0 |
| 20260905044643 | 24 | 223 | 0.0 | 0.0 | 0.00 | 0.00 | 0.00 | 96 | 1015.1 |
| 20260905044137 | 24 | 223 | 0.0 | 0.0 | 0.00 | 0.00 | 0.00 | 96 | 1015.1 |
| 20260905043636 | 24 | 223 | 0.0 | 0.0 | 0.00 | 0.00 | 0.00 | 96 | 1015.0 |
| 20260905043131 | 24 | 223 | 0.0 | 0.0 | 0.00 | 0.00 | 0.00 | 96 | 1015.1 |
| 20260905042630 | 24 | 223 | 0.0 | 0.0 | 0.00 | 0.00 | 0.00 | 96 | 1015.2 |
| 20260905042125 | 24 | 223 | 0.0 | 0.0 | 0.00 | 0.00 | 0.00 | 96 | 1015.2 |
| 20260905041621 | 24 | 223 | 0.0 | 0.0 | 0.00 | 0.00 | 0.00 | 96 | 1015.2 |
| 20260905041116 | 24 | 223 | 0.0 | 0.0 | 0.00 | 0.00 | 0.00 | 96 | 1015.1 |
| 20260905040611 | 24 | 223 | 0.0 | 0.0 | 0.00 | 0.00 | 0.00 | 96 | 1015.2 |
| 20260905040110 | 25 | 223 | 0.0 | 0.0 | 0.00 | 0.00 | 0.00 | 95 | 1015.4 |
| 20260905035605 | 25 | 223 | 0.0 | 0.0 | 0.00 | 0.00 | 0.00 | 96 | 1015.4 |
| 20260905035102 | 25 | 223 | 0.0 | 0.0 | 0.00 | 0.00 | 0.00 | 96 | 1015.3 |
| 20260905034557 | 25 | 223 | 0.0 | 0.0 | 0.00 | 0.00 | 0.00 | 95 | 1015.4 |
| 20260905034056 | 25 | 223 | 0.0 | 0.0 | 0.00 | 0.00 | 0.00 | 95 | 1015.2 |
| 20260905033550 | 25 | 223 | 0.0 | 0.0 | 0.00 | 0.00 | 0.00 | 95 | 1015.2 |
| 20260905033046 | 25 | 223 | 0.0 | 0.0 | 0.00 | 0.00 | 0.00 | 95 | 1015.1 |
| 20260905032540 | 25 | 223 | 0.0 | 0.0 | 0.00 | 0.00 | 0.00 | 95 | 1015.2 |
| 20260905032035 | 25 | 223 | 0.0 | 0.0 | 0.00 | 0.00 | 0.00 | 95 | 1015.1 |
| 20260905031531 | 25 | 223 | 0.0 | 0.0 | 0.00 | 0.00 | 0.00 | 94 | 1015.1 |
| 20260905031031 | 25 | 223 | 0.0 | 0.0 | 0.00 | 0.00 | 0.00 | 94 | 1015.3 |
| 20260905030521 | 25 | 223 | 0.0 | 0.0 | 0.00 | 0.00 | 0.00 | 94 | 1015.3 |
| 20260905030020 | 25 | 223 | 0.0 | 0.0 | 0.00 | 0.00 | 0.00 | 94 | 1015.4 |
| 20260905025515 | 25 | 223 | 0.0 | 0.0 | 0.00 | 0.00 | 0.00 | 94 | 1015.5 |
| 20260905025012 | 25 | 223 | 0.0 | 0.0 | 0.00 | 0.00 | 0.00 | 94 | 1015.3 |
| 20260905024508 | 25 | 221 | 0.0 | 0.0 | 0.00 | 0.00 | 0.00 | 93 | 1015.5 |
| 20260905024003 | 25 | 221 | 0.0 | 0.0 | 0.00 | 0.00 | 0.00 | 93 | 1015.2 |
| 20260905023503 | 25 | 221 | 0.0 | 0.0 | 0.00 | 0.00 | 0.00 | 93 | 1015.4 |
| 20260905023001 | 25 | 221 | 0.0 | 0.0 | 0.00 | 0.00 | 0.00 | 93 | 1015.1 |
| 20260905022457 | 25 | 221 | 0.0 | 0.0 | 0.00 | 0.00 | 0.00 | 92 | 1015.3 |
| 20260905021953 | 26 | 221 | 0.0 | 0.0 | 0.00 | 0.00 | 0.00 | 92 | 1015.2 |
| 20260905021452 | 26 | 221 | 0.0 | 0.0 | 0.00 | 0.00 | 0.00 | 92 | 1015.3 |
| 20260905020948 | 26 | 221 | 0.0 | 0.0 | 0.00 | 0.00 | 0.00 | 92 | 1015.2 |
| 20260905020447 | 26 | 221 | 0.0 | 0.0 | 0.00 | 0.00 | 0.00 | 91 | 1015.2 |
| 20260905015942 | 26 | 221 | 0.0 | 0.0 | 0.00 | 0.00 | 0.00 | 91 | 1015.2 |
| 20260905015440 | 26 | 221 | 0.0 | 0.0 | 0.00 | 0.00 | 0.00 | 91 | 1015.2 |
| 20260905014939 | 26 | 221 | 0.0 | 0.0 | 0.00 | 0.00 | 0.00 | 91 | 1015.1 |
| 20260905014435 | 26 | 221 | 0.0 | 0.0 | 0.00 | 0.00 | 0.00 | 90 | 1015.0 |
| 20260905013930 | 26 | 221 | 0.0 | 0.0 | 0.00 | 0.00 | 0.00 | 90 | 1015.0 |
| 20260905013427 | 26 | 221 | 0.0 | 0.0 | 0.00 | 0.00 | 0.00 | 89 | 1015.0 |
| 20260905012927 | 26 | 221 | 0.0 | 0.0 | 0.00 | 0.00 | 0.00 | 89 | 1014.9 |
| 20260905012422 | 26 | 221 | 0.0 | 0.0 | 0.00 | 0.00 | 0.00 | 89 | 1015.0 |
| 20260905011919 | 27 | 221 | 0.0 | 0.0 | 0.00 | 0.00 | 0.00 | 88 | 1014.8 |
| 20260905011414 | 27 | 221 | 0.0 | 0.0 | 0.00 | 0.00 | 0.00 | 87 | 1014.9 |
| 20260905010909 | 27 | 221 | 0.0 | 0.0 | 0.00 | 0.00 | 0.00 | 86 | 1014.8 |
| 20260905010405 | 27 | 221 | 0.0 | 0.0 | 0.00 | 0.00 | 0.00 | 85 | 1014.9 |
| 20260905005901 | 27 | 221 | 0.0 | 0.0 | 0.00 | 0.00 | 0.00 | 85 | 1014.8 |
| 20260905005356 | 27 | 221 | 0.0 | 0.0 | 0.00 | 0.00 | 0.00 | 85 | 1014.8 |
| 20260905004851 | 27 | 221 | 0.0 | 0.0 | 0.00 | 0.00 | 0.00 | 84 | 1014.5 |
| 20260905004346 | 27 | 221 | 0.0 | 0.0 | 0.00 | 0.00 | 0.00 | 85 | 1014.4 |
| 20260905003842 | 28 | 221 | 0.0 | 0.0 | 0.00 | 0.00 | 0.00 | 85 | 1014.4 |
| 20260905003337 | 28 | 221 | 0.0 | 0.0 | 0.00 | 0.00 | 0.00 | 84 | 1014.3 |
| 20260905002833 | 28 | 221 | 0.0 | 0.0 | 0.00 | 0.00 | 0.00 | 81 | 1014.3 |
| 20260905002332 | 29 | 221 | 0.0 | 0.0 | 0.00 | 0.00 | 0.00 | 80 | 1014.3 |
| 20260905001827 | 29 | 221 | 0.0 | 0.0 | 0.00 | 0.00 | 0.00 | 79 | 1014.2 |
| 20260905001326 | 30 | 221 | 0.0 | 0.0 | 0.00 | 0.00 | 0.00 | 77 | 1014.5 |
| 20260905000822 | 30 | 221 | 0.0 | 0.0 | 0.00 | 0.00 | 0.00 | 76 | 1014.4 |
| 20260905000318 | 30 | 221 | 0.0 | 0.0 | 0.00 | 0.00 | 0.00 | 75 | 1014.3 |
| 20260904235812 | 31 | 221 | 0.0 | 0.0 | 0.00 | 0.00 | 0.00 | 72 | 1014.3 |
| 20260904235308 | 31 | 221 | 0.0 | 0.0 | 0.00 | 0.00 | 0.00 | 71 | 1014.3 |
| 20260904234802 | 31 | 221 | 0.0 | 0.0 | 0.00 | 0.00 | 0.00 | 70 | 1014.2 |
| 20260904234252 | 31 | 219 | 0.0 | 0.0 | 0.00 | 0.00 | 0.00 | 69 | 1014.2 |
| 20260904233748 | 31 | 219 | 0.0 | 0.0 | 0.00 | 0.00 | 0.00 | 69 | 1014.2 |
| 20260904233244 | 32 | 219 | 0.0 | 0.0 | 0.00 | 0.00 | 0.00 | 67 | 1014.2 |
| 20260904232740 | 32 | 219 | 0.0 | 0.0 | 0.00 | 0.00 | 0.00 | 67 | 1014.4 |
| 20260904232236 | 32 | 219 | 0.0 | 0.0 | 0.00 | 0.00 | 0.00 | 67 | 1014.3 |
| 20260904231731 | 32 | 219 | 0.0 | 0.0 | 0.00 | 0.00 | 0.00 | 65 | 1014.3 |
| 20260904231227 | 32 | 218 | 0.0 | 0.0 | 0.00 | 0.00 | 0.00 | 65 | 1014.3 |
| 20260904230727 | 33 | 228 | 0.0 | 0.0 | 0.00 | 0.00 | 0.00 | 64 | 1014.3 |
| 20260904230221 | 33 | 232 | 0.0 | 0.0 | 0.00 | 0.00 | 0.00 | 64 | 1014.3 |
| 20260904225720 | 33 | 236 | 0.0 | 1.6 | 0.00 | 0.00 | 0.00 | 63 | 1014.3 |
| 20260904225215 | 33 | 240 | 0.0 | 1.6 | 0.00 | 0.00 | 0.00 | 63 | 1014.4 |
| 20260904224714 | 33 | 236 | 1.6 | 1.6 | 0.00 | 0.00 | 0.00 | 63 | 1014.2 |
| 20260904224209 | 33 | 223 | 0.0 | 0.0 | 0.00 | 0.00 | 0.00 | 63 | 1014.5 |
| 20260904223708 | 33 | 225 | 0.0 | 1.6 | 0.00 | 0.00 | 0.00 | 61 | 1014.4 |
| 20260904223203 | 33 | 226 | 1.6 | 1.6 | 0.00 | 0.00 | 0.00 | 60 | 1014.5 |
| 20260904222658 | 33 | 228 | 0.0 | 0.0 | 0.00 | 0.00 | 0.00 | 58 | 1014.4 |
| 20260904222154 | 33 | 225 | 1.6 | 1.6 | 0.00 | 0.00 | 0.00 | 57 | 1014.5 |
| 20260904221653 | 34 | 232 | 0.0 | 0.0 | 0.00 | 0.00 | 0.00 | 58 | 1014.5 |
| 20260904221149 | 34 | 236 | 0.0 | 1.6 | 0.00 | 0.00 | 0.00 | 57 | 1014.5 |
| 20260904220643 | 35 | 238 | 0.0 | 0.0 | 0.00 | 0.00 | 0.00 | 58 | 1014.6 |
| 20260904220138 | 35 | 267 | 0.0 | 0.0 | 0.00 | 0.00 | 0.00 | 55 | 1014.8 |
| 20260904215633 | 35 | 283 | 0.0 | 0.0 | 0.00 | 0.00 | 0.00 | 55 | 1014.8 |
| 20260904215129 | 35 | 279 | 0.0 | 0.0 | 0.00 | 0.00 | 0.00 | 57 | 1014.6 |
| 20260904214629 | 34 | 280 | 0.0 | 0.0 | 0.00 | 0.00 | 0.00 | 55 | 1014.8 |
| 20260904214125 | 34 | 351 | 1.6 | 3.2 | 0.00 | 0.00 | 0.00 | 54 | 1014.5 |
| 20260904213622 | 34 | 248 | 0.0 | 0.0 | 0.00 | 0.00 | 0.00 | 57 | 1014.9 |
| 20260904213120 | 33 | 261 | 0.0 | 0.0 | 0.00 | 0.00 | 0.00 | 62 | 1014.9 |
| 20260904212619 | 33 | 275 | 0.0 | 0.0 | 0.00 | 0.00 | 0.00 | 60 | 1014.9 |
| 20260904212114 | 33 | 275 | 0.0 | 0.0 | 0.00 | 0.00 | 0.00 | 60 | 1014.8 |
| 20260904211615 | 33 | 277 | 0.0 | 0.0 | 0.00 | 0.00 | 0.00 | 60 | 1014.9 |
| 20260904211110 | 33 | 277 | 0.0 | 0.0 | 0.00 | 0.00 | 0.00 | 62 | 1014.9 |
| 20260904210609 | 33 | 278 | 0.0 | 0.0 | 0.00 | 0.00 | 0.00 | 58 | 1014.8 |
| 20260904210105 | 34 | 278 | 0.0 | 0.0 | 0.00 | 0.00 | 0.00 | 56 | 1015.0 |
| 20260904205600 | 34 | 280 | 0.0 | 0.0 | 0.00 | 0.00 | 0.00 | 53 | 1014.9 |
| 20260904205056 | 35 | 316 | 1.6 | 1.6 | 0.00 | 0.00 | 0.00 | 54 | 1015.2 |
| 20260904204552 | 35 | 241 | 0.0 | 0.0 | 0.00 | 0.00 | 0.00 | 56 | 1015.0 |
| 20260904204048 | 35 | 234 | 1.6 | 1.6 | 0.00 | 0.00 | 0.00 | 55 | 1015.1 |
| 20260904203544 | 35 | 279 | 0.0 | 0.0 | 0.00 | 0.00 | 0.00 | 53 | 1015.1 |
| 20260904203040 | 35 | 241 | 0.0 | 0.0 | 0.00 | 0.00 | 0.00 | 53 | 1015.4 |
| 20260904202536 | 35 | 239 | 0.0 | 0.0 | 0.00 | 0.00 | 0.00 | 54 | 1015.4 |
| 20260904202032 | 35 | 246 | 0.0 | 0.0 | 0.00 | 0.00 | 0.00 | 54 | 1015.4 |
| 20260904201527 | 35 | 200 | 3.2 | 3.2 | 0.00 | 0.00 | 0.00 | 54 | 1015.5 |
| 20260904201022 | 34 | 216 | 3.2 | 3.2 | 0.00 | 0.00 | 0.00 | 55 | 1015.6 |
| 20260904200520 | 34 | 270 | 0.0 | 0.0 | 0.00 | 0.00 | 0.00 | 56 | 1015.7 |
| 20260904200016 | 34 | 59 | 1.6 | 3.2 | 0.00 | 0.00 | 0.00 | 58 | 1015.6 |
| 20260904195514 | 33 | 348 | 1.6 | 1.6 | 0.00 | 0.00 | 0.00 | 59 | 1015.7 |
| 20260904195014 | 33 | 285 | 0.0 | 1.6 | 0.00 | 0.00 | 0.00 | 57 | 1015.8 |
| 20260904194509 | 33 | 66 | 3.2 | 3.2 | 0.00 | 0.00 | 0.00 | 57 | 1015.9 |
| 20260904194003 | 34 | 20 | 3.2 | 3.2 | 0.00 | 0.00 | 0.00 | 56 | 1016.0 |
| 20260904193458 | 34 | 345 | 1.6 | 3.2 | 0.00 | 0.00 | 0.00 | 56 | 1016.1 |
| 20260904192954 | 34 | 331 | 1.6 | 1.6 | 0.00 | 0.00 | 0.00 | 55 | 1016.2 |
| 20260904192454 | 36 | 320 | 3.2 | 3.2 | 0.00 | 0.00 | 0.00 | 54 | 1016.2 |
| 20260904191950 | 37 | 313 | 1.6 | 1.6 | 0.00 | 0.00 | 0.00 | 50 | 1016.3 |